TKPKTNCM

Guest
Details From TKPK - St. Kitts/Bradshaw Intl
To TNCM - St Maarten - Princess Juliana Intl
Flight Number -
Tags generated
Created
Modified
Stats Distance 49 nm / 91 km
Max Altitude 4,000 ft / 1,219 m
Waypoints 3
Social Downloads 0
Likes 0
Share VATSIM

Download

Looking for another format? Having issues loading an existing format? Contact us
Advertisement - Login to hide

Notes

Basic altitude profile: - Ascent Rate: 18000ft/min - Ascent Speed: 250kts - Cruise Altitude: 18000ft - Cruise Speed: 420kts - Descent Rate: 4000ft/min - Descent Speed: 250kts Options: - Use NATs: yes - Use PACOTS: yes - Use low airways: yes - Use high airways: yes

Route

TKPK TIKAL TNCM

ID Type Via Altitude Latitude Longitude Leg Dist Tot Dist Heading (true) Name
O TKPK APT - 0 ft / 0 m 17.31119˚ -62.71867˚ - 0 nm - St. Kitts/Bradshaw Intl
TIKAL FIX - 4,000 ft / 1,219 m 17.47381˚ -62.81800˚ 11 nm 11 nm 330° / 330° -
O TNCM APT - 0 ft / 0 m 18.04089˚ -63.10897˚ 37 nm 49 nm 334° / 334° St Maarten - Princess Juliana Intl

Altitude Profile

Advertisement - Login to hide

TKPK

Details ICAO TKPK (SKB)
Name St. Kitts/Bradshaw Intl
Region Saint Kitts and Nevis
Timezone America/St_Kitts (UTC-4.0)
Stats Elevation 170 ft / 52 m (AMSL)
Location 17.311194° -62.718666°
Runways 1
Magnetic Variation 14.465° W

METAR

Not found

TAF

TAF TKPK 210540Z 2106/2206 09010KT P6SM FEW018 BKN050 FM211300 09013KT P6SM SCT020 SCT060 FM212300 09010KT P6SM SCT018 AMD NOT SKED TIL 211100

Decode

Departure Runways

ID Width Length Bearing (true) Bearing (mag) Surface Threshold Offset Overrun Length
07 148 ft / 45 m 7,620 ft / 2,323 m 56.95° 71.42° Asphalt 200 ft / 61 m 0 ft / 0 m
25 148 ft / 45 m 7,620 ft / 2,323 m 236.95° 251.42° Asphalt 0 ft / 0 m 0 ft / 0 m

TNCM

Details ICAO TNCM (SXM)
Name St Maarten - Princess Juliana Intl
Region Caribbean Netherlands, Aruba, Curaçao, Sint Maarten
Timezone Unknown (UTC+0.0)
Stats Elevation 12 ft / 4 m (AMSL)
Location 18.040889° -63.108974°
Runways 1
Magnetic Variation 14.339° W

METAR

TNCM 210600Z 12004KT 090V160 9999 FEW020 27/22 Q1017 A3003 RMK HZ ALQDS

Decode

TAF

TAF TNCM 210540Z 2106/2206 10008KT P6SM FEW018 BKN050 FM211300 11012KT P6SM SCT020 SCT060 FM212300 10008KT P6SM SCT018

Decode

Destination Runways

ID Width Length Bearing (true) Bearing (mag) Surface Threshold Offset Overrun Length
10 148 ft / 45 m 7,464 ft / 2,275 m 81.43° 95.77° Asphalt 0 ft / 0 m 151 ft / 46 m
28 148 ft / 45 m 7,464 ft / 2,275 m 261.44° 275.78° Asphalt 397 ft / 121 m 0 ft / 0 m

Popular Alternatives